This is the latest recevied weather packets stored in our database for station/object KM4NDN. If no packets are shown the sender has not sent any weather packets the latest 10 day(s).
| Time | Temp. | Humidity | Pressure | Rain* | Wind** | Luminosity | Snow |
|---|---|---|---|---|---|---|---|
| 1778069380 | 7.22° C | 90% | 1008.5 hPa | 0 mm | - | 58 W/m² | - |
| 1778069078 | 7.22° C | 90% | 1008.3 hPa | 0 mm | - | 71 W/m² | - |
| 1778068775 | 7.22° C | 90% | 1008.2 hPa | 0 mm | - | 76 W/m² | - |
| 1778068473 | 7.22° C | 90% | 1008.3 hPa | 0 mm | - | 47 W/m² | - |
| 1778068171 | 7.22° C | 90% | 1008 hPa | 0 mm | - | 49 W/m² | - |
| 1778067869 | 7.22° C | 90% | 1008.4 hPa | 0 mm | - | 36 W/m² | - |
| 1778067567 | 7.22° C | 90% | 1008.7 hPa | 0 mm | - | 42 W/m² | - |
| 1778067265 | 7.22° C | 91% | 1008.3 hPa | 0 mm | - | 33 W/m² | - |
| 1778066961 | 7.22° C | 92% | 1008.5 hPa | 0 mm | - | 15 W/m² | - |
| 1778066659 | 7.22° C | 92% | 1008.4 hPa | 0 mm | - | 19 W/m² | - |
| 1778066356 | 6.67° C | 92% | 1008.4 hPa | 0 mm | - | 8 W/m² | - |
| 1778066054 | 6.67° C | 92% | 1008 hPa | 0 mm | - | 9 W/m² | - |
| 1778065751 | 6.67° C | 93% | 1008.1 hPa | 0 mm | - | 6 W/m² | - |
| 1778065448 | 6.67° C | 93% | 1007.8 hPa | 0 mm | - | 8 W/m² | - |
| 1778065145 | 6.67° C | 93% | 1007.6 hPa | 0 mm | - | 8 W/m² | - |
| 1778064841 | 6.67° C | 94% | 1007.6 hPa | 0 mm | - | 8 W/m² | - |
| 1778064539 | 6.67° C | 94% | 1007.6 hPa | 0 mm | - | 6 W/m² | - |
| 1778064236 | 6.67° C | 94% | 1007.5 hPa | 0 mm | - | 5 W/m² | - |
| 1778063934 | 6.67° C | 94% | 1007.1 hPa | 0 mm | - | 3 W/m² | - |
| 1778063631 | 6.67° C | 94% | 1006.9 hPa | 0 mm | - | 2 W/m² | - |
| 1778063328 | 6.67° C | 95% | 1006.8 hPa | 0 mm | - | 1 W/m² | - |
| 1778063026 | 6.67° C | 94% | 1006.8 hPa | 0 mm | - | 1 W/m² | - |
| 1778062723 | 6.67° C | 94% | 1006.8 hPa | 0 mm | - | 0 W/m² | - |
| 1778062419 | 6.67° C | 94% | 1006.9 hPa | 0 mm | - | 0 W/m² | - |
| 1778062117 | 6.67° C | 94% | 1007 hPa | 0 mm | - | 0 W/m² | - |
* Rain latest hour (hover to see other rain measurements)
** Current wind speed in m/s (hover to see current wind gust speed)